TimeEDT,TemperatureF,Dew PointF,Humidity,Sea Level PressureIn,VisibilityMPH,Wind Direction,Wind SpeedMPH,Gust SpeedMPH,PrecipitationIn,Events,Conditions,WindDirDegrees,DateUTC
12:14 AM,35.6,30.2,81,29.63,10.0,WSW,11.5,19.6,N/A,,Overcast,250,2013-03-19 04:14:00
12:34 AM,35.6,30.2,81,29.64,10.0,WSW,11.5,18.4,N/A,,Overcast,240,2013-03-19 04:34:00
12:54 AM,35.6,30.2,81,29.63,10.0,WSW,13.8,18.4,N/A,,Overcast,240,2013-03-19 04:54:00
1:14 AM,35.6,30.2,81,29.63,10.0,SW,9.2,-,N/A,,Overcast,230,2013-03-19 05:14:00
1:34 AM,35.6,30.2,81,29.63,10.0,SW,8.1,-,N/A,,Overcast,220,2013-03-19 05:34:00
1:54 AM,35.6,30.2,81,29.63,10.0,SW,17.3,24.2,N/A,,Overcast,220,2013-03-19 05:54:00
2:14 AM,35.6,26.6,70,29.62,10.0,SW,20.7,32.2,N/A,,Overcast,230,2013-03-19 06:14:00
2:34 AM,33.8,24.8,70,29.63,10.0,SW,17.3,28.8,N/A,,Overcast,230,2013-03-19 06:34:00
2:54 AM,33.8,24.8,70,29.63,10.0,SW,16.1,25.3,N/A,,Overcast,230,2013-03-19 06:54:00
3:14 AM,33.8,24.8,70,29.64,10.0,SW,13.8,21.9,N/A,,Overcast,230,2013-03-19 07:14:00
3:34 AM,32.0,24.8,75,29.65,10.0,WSW,16.1,24.2,N/A,,Overcast,240,2013-03-19 07:34:00
3:54 AM,32.0,24.8,75,29.66,10.0,West,17.3,25.3,N/A,,Overcast,260,2013-03-19 07:54:00
4:14 AM,30.2,21.2,69,29.67,10.0,West,15.0,25.3,N/A,,Overcast,260,2013-03-19 08:14:00
4:35 AM,30.2,21.2,69,29.67,10.0,West,11.5,21.9,N/A,,Overcast,260,2013-03-19 08:35:00
4:54 AM,30.2,21.2,69,29.68,10.0,West,12.7,21.9,N/A,,Overcast,270,2013-03-19 08:54:00
5:14 AM,28.4,21.2,74,29.69,10.0,West,18.4,25.3,N/A,,Overcast,260,2013-03-19 09:14:00
5:35 AM,28.4,17.6,64,29.70,10.0,West,13.8,23.0,N/A,,Overcast,260,2013-03-19 09:35:00
5:54 AM,28.4,17.6,64,29.70,10.0,WSW,16.1,-,N/A,,Overcast,250,2013-03-19 09:54:00
6:14 AM,28.4,19.4,69,29.70,10.0,WSW,16.1,23.0,N/A,Snow,Light Snow,240,2013-03-19 10:14:00
6:34 AM,28.4,19.4,69,29.71,7.0,WSW,18.4,29.9,N/A,Snow,Light Snow,250,2013-03-19 10:34:00
6:54 AM,26.6,15.8,64,29.72,10.0,WSW,15.0,26.5,N/A,,Overcast,240,2013-03-19 10:54:00
7:14 AM,26.6,15.8,64,29.73,10.0,WSW,17.3,23.0,N/A,Snow,Light Snow,250,2013-03-19 11:14:00
7:34 AM,24.8,19.4,80,29.75,3.0,WSW,16.1,19.6,N/A,Snow,Light Snow,250,2013-03-19 11:34:00
7:54 AM,24.8,17.6,74,29.75,7.0,SW,12.7,23.0,N/A,Snow,Light Snow,230,2013-03-19 11:54:00
8:14 AM,24.8,19.4,80,29.75,10.0,WSW,13.8,26.5,N/A,Snow,Light Snow,240,2013-03-19 12:14:00
8:34 AM,24.8,15.8,69,29.75,10.0,WSW,13.8,21.9,N/A,Snow,Light Snow,240,2013-03-19 12:34:00
8:54 AM,24.8,14.0,64,29.75,10.0,WSW,19.6,25.3,N/A,,Overcast,240,2013-03-19 12:54:00
9:14 AM,24.8,15.8,69,29.75,10.0,WSW,13.8,21.9,N/A,,Overcast,240,2013-03-19 13:14:00
9:34 AM,24.8,15.8,69,29.75,10.0,WSW,13.8,21.9,N/A,,Overcast,240,2013-03-19 13:34:00
9:54 AM,26.6,15.8,64,29.75,10.0,WSW,19.6,27.6,N/A,,Overcast,240,2013-03-19 13:54:00
10:14 AM,26.6,12.2,55,29.75,10.0,West,19.6,27.6,N/A,,Overcast,260,2013-03-19 14:14:00
10:34 AM,26.6,14.0,59,29.75,10.0,WSW,17.3,25.3,N/A,,Overcast,240,2013-03-19 14:34:00
10:54 AM,24.8,17.6,74,29.76,4.0,WSW,17.3,24.2,N/A,Snow,Light Snow,250,2013-03-19 14:54:00
11:14 AM,24.8,17.6,74,29.77,4.0,WSW,20.7,26.5,N/A,Snow,Light Snow,250,2013-03-19 15:14:00
11:34 AM,24.8,15.8,69,29.77,10.0,WSW,16.1,24.2,N/A,Snow,Light Snow,250,2013-03-19 15:34:00
11:55 AM,26.6,10.4,51,29.78,10.0,West,20.7,31.1,N/A,,Overcast,260,2013-03-19 15:55:00
12:14 PM,26.6,10.4,51,29.78,10.0,West,21.9,32.2,N/A,,Overcast,260,2013-03-19 16:14:00
12:34 PM,26.6,12.2,55,29.79,10.0,WSW,18.4,29.9,N/A,Snow,Light Snow,250,2013-03-19 16:34:00
12:54 PM,26.6,14.0,59,29.79,10.0,WSW,18.4,26.5,N/A,,Overcast,250,2013-03-19 16:54:00
1:14 PM,26.6,15.8,64,29.79,7.0,WSW,19.6,27.6,N/A,Snow,Light Snow,250,2013-03-19 17:14:00
1:34 PM,26.6,17.6,69,29.80,7.0,West,20.7,26.5,N/A,Snow,Light Snow,260,2013-03-19 17:34:00
1:54 PM,26.6,14.0,59,29.80,10.0,WSW,17.3,31.1,N/A,Snow,Light Snow,250,2013-03-19 17:54:00
2:14 PM,28.4,15.8,59,29.80,10.0,West,17.3,26.5,N/A,Snow,Light Snow,260,2013-03-19 18:14:00
2:34 PM,28.4,15.8,59,29.81,10.0,WSW,18.4,26.5,N/A,,Overcast,250,2013-03-19 18:34:00
2:54 PM,28.4,15.8,59,29.81,10.0,WSW,19.6,27.6,N/A,,Overcast,240,2013-03-19 18:54:00
3:14 PM,28.4,15.8,59,29.81,10.0,WSW,23.0,29.9,N/A,Snow,Light Snow,250,2013-03-19 19:14:00
3:34 PM,28.4,15.8,59,29.82,10.0,West,24.2,27.6,N/A,Snow,Light Snow,260,2013-03-19 19:34:00
3:54 PM,26.6,17.6,69,29.83,10.0,West,17.3,28.8,N/A,Snow,Light Snow,260,2013-03-19 19:54:00
4:14 PM,28.4,17.6,64,29.83,7.0,West,20.7,26.5,N/A,Snow,Light Snow,260,2013-03-19 20:14:00
4:35 PM,28.4,17.6,64,29.84,10.0,West,25.3,33.4,N/A,Snow,Light Snow,260,2013-03-19 20:35:00
4:54 PM,28.4,17.6,64,29.84,10.0,West,21.9,29.9,N/A,,Overcast,270,2013-03-19 20:54:00
5:14 PM,28.4,17.6,64,29.85,10.0,WSW,16.1,27.6,N/A,Snow,Light Snow,250,2013-03-19 21:14:00
5:34 PM,28.4,17.6,64,29.85,10.0,West,15.0,21.9,N/A,Snow,Light Snow,260,2013-03-19 21:34:00
5:54 PM,28.4,17.6,64,29.86,10.0,WSW,17.3,25.3,N/A,Snow,Light Snow,250,2013-03-19 21:54:00
6:14 PM,28.4,17.6,64,29.86,10.0,West,13.8,-,N/A,,Overcast,260,2013-03-19 22:14:00
6:34 PM,30.2,15.8,55,29.87,10.0,West,12.7,19.6,N/A,,Overcast,270,2013-03-19 22:34:00
6:54 PM,30.2,15.8,55,29.87,10.0,West,16.1,23.0,N/A,,Overcast,280,2013-03-19 22:54:00
7:14 PM,30.2,15.8,55,29.88,10.0,West,16.1,21.9,N/A,,Overcast,270,2013-03-19 23:14:00
7:34 PM,30.2,15.8,55,29.88,10.0,West,16.1,25.3,N/A,,Overcast,270,2013-03-19 23:34:00
7:54 PM,30.2,15.8,55,29.89,10.0,West,15.0,21.9,N/A,,Overcast,260,2013-03-19 23:54:00
8:14 PM,30.2,15.8,55,29.90,10.0,West,12.7,20.7,N/A,,Overcast,270,2013-03-20 00:14:00
8:34 PM,30.2,15.8,55,29.91,10.0,West,10.4,20.7,N/A,,Overcast,280,2013-03-20 00:34:00
8:54 PM,30.2,15.8,55,29.92,10.0,West,11.5,18.4,N/A,,Overcast,280,2013-03-20 00:54:00
9:15 PM,30.2,15.8,55,29.92,10.0,West,13.8,-,N/A,,Overcast,280,2013-03-20 01:15:00
9:34 PM,28.4,15.8,59,29.93,10.0,West,9.2,-,N/A,,Scattered Clouds,270,2013-03-20 01:34:00
9:54 PM,28.4,15.8,59,29.93,10.0,West,8.1,-,N/A,,Clear,270,2013-03-20 01:54:00
10:14 PM,28.4,15.8,59,29.93,10.0,West,10.4,18.4,N/A,,Clear,270,2013-03-20 02:14:00
10:34 PM,28.4,15.8,59,29.93,10.0,West,8.1,-,N/A,,Clear,270,2013-03-20 02:34:00
10:54 PM,28.4,15.8,59,29.93,10.0,West,10.4,18.4,N/A,,Clear,270,2013-03-20 02:54:00
11:14 PM,28.4,14.0,55,29.93,10.0,West,12.7,24.2,N/A,,Clear,270,2013-03-20 03:14:00
11:34 PM,28.4,14.0,55,29.93,10.0,West,15.0,20.7,N/A,,Clear,270,2013-03-20 03:34:00
11:54 PM,28.4,14.0,55,29.93,10.0,West,11.5,17.3,N/A,,Clear,260,2013-03-20 03:54:00